Regional Weather Roundup
Issued by NWS

Home | Current Version | Previous Version | Graphics & Text | Print | Product List | Glossary On
Versions: 1 2 3 4 5 6 7 8 9 10 11 12 13 14 15 16 17 18 19 20 21 22 23 24 25 26 27 28 29 30 31 32 33 34 35 36 37 38 39 40 41 42 43 44 45 46 47 48 49 50
000
ASUS43 KBIS 140510
RWRND

NORTH DAKOTA REGIONAL WEATHER ROUNDUP
NATIONAL WEATHER SERVICE BISMARCK ND
1100 PM CST WED DEC 13 2017

NOTE: "FAIR" INDICATES FEW OR NO CLOUDS BELOW 12,000 FEET WITH NO
SIGNIFICANT WEATHER AND/OR OBSTRUCTIONS TO VISIBILITY.


NDZ001>003-009>011-017-140600-
NORTHWEST NORTH DAKOTA

CITY           SKY/WX    TMP DP  RH WIND       PRES   REMARKS
WILLISTON      CLOUDY    35  29  78 W8        30.01R
MINOT          CLOUDY    31  26  82 SW8       29.95S
MINOT AFB      CLOUDY    29  24  84 W7        29.94S
$$

NDZ018>021-031>035-040>046-140600-
SOUTHWEST NORTH DAKOTA

CITY           SKY/WX    TMP DP  RH WIND       PRES   REMARKS
BISMARCK       CLOUDY    33  25  72 W7        30.00S
DICKINSON      MOCLDY    34  26  72 W15       29.98F
GARRISON         N/A     25  22  88 W6        29.97S WCI  18
HETTINGER ARPT MOCLDY    33  25  72 W14       30.03S
$$

NDZ004>008-012>016-024-026-027-054-140600-
NORTHEAST NORTH DAKOTA

CITY           SKY/WX    TMP DP  RH WIND       PRES   REMARKS
GRAND FORKS    FLURRIES  19  14  81 NW8       30.00R WCI   9
GRND FRKS AFB  CLOUDY    17  12  81 N6        30.01R WCI   8
DEVILS LAKE    CLOUDY    20  18  92 E5        29.97S WCI  13
$$

NDZ022-023-025-028>030-036>039-047>053-140600-
SOUTHEAST NORTH DAKOTA

CITY           SKY/WX    TMP DP  RH WIND       PRES   REMARKS
FARGO          LGT SNOW  19  14  81 N12       30.00S WCI   7
JAMESTOWN      CLOUDY    25  23  92 NW6       29.96R WCI  18
$$




USA.gov is the U.S. government's official web portal to all federal, state and local government web resources and services.